[[{"header":{"parameterUnit":"m.s-1","parameterCategory":1,"la1":30.2991,"la2":30.254,"lo1":-89.0895,"lo2":-89.0444,"dy":0.0017,"dx":0.0017,"nx":28,"ny":28,"refTime":"2024-04-22T21:00:00:Z","depth":0,"parameterNumber":2,"parameterNumberName":"U-component_of_WINDS"},"data":[0,0,0,0,0,0,0,0,0,0,0,0,0,0,0,0,0,0,0,0,0,0,0,0,0,0,0,0,0,0,0,0,0,0,0,0,0,0,0,0,0,0,0,0,0,0,0,0,0,0,0,0,0,0,0,0,0,0,-0.6812,-0.6811,0,-0.6718,-0.6717,-0.6716,-0.667,-0.667,-0.667,-0.667,-0.6571,-0.6569,-0.6566,0,0,0,0,0,0,0,0,0,0,0,0,0,-0.6953,-0.695,-0.6812,-0.6811,-0.681,-0.6718,-0.6717,-0.6715,-0.667,-0.667,-0.667,-0.667,-0.6572,-0.6569,-0.6566,0,0,0,0,0,0,0,0,0,0,0,0,0,-0.6878,-0.695,-0.6812,-0.6776,-0.6772,-0.6718,-0.6716,-0.6715,-0.667,-0.667,-0.667,-0.667,-0.6573,-0.6569,-0.6565,-0.654,0,0,-0.6553,-0.6551,0,0,0,0,0,0,0,0,-0.6883,-0.6873,-0.6783,-0.6779,-0.6774,-0.6706,-0.673,-0.6656,-0.667,-0.6709,-0.667,-0.667,-0.6616,-0.6608,-0.659,-0.6535,-0.6531,-0.6553,-0.655,-0.6549,-0.6548,0,0,0,0,0,0,0,-0.6888,-0.6877,-0.6775,-0.6781,-0.6776,-0.6764,-0.6754,-0.6716,-0.6663,-0.6705,-0.6702,-0.6691,-0.6613,-0.6594,-0.6588,-0.653,-0.6553,-0.6549,-0.6547,-0.6545,-0.645,-0.645,0,0,0,0,0,0,-0.6899,-0.6882,-0.6778,-0.6772,-0.6829,-0.6762,-0.675,-0.6727,-0.6663,-0.6654,-0.6691,-0.6689,-0.6601,-0.6592,-0.6584,-0.655,-0.6549,-0.6545,-0.6543,-0.645,-0.645,-0.645,0,0,0,0,0,0,-0.6902,-0.689,-0.6781,-0.6826,-0.6811,-0.6759,-0.6734,-0.6726,-0.6706,-0.6653,-0.6643,-0.6682,-0.6601,-0.659,-0.6552,-0.6546,-0.6543,-0.654,-0.645,-0.645,-0.645,-0.6483,0,0,0,0,0,0,-0.6906,-0.6892,-0.6881,-0.6826,-0.6809,-0.6751,-0.6734,-0.6724,-0.67,-0.6697,-0.6641,-0.6632,-0.66,-0.6558,-0.6548,-0.6541,-0.6536,-0.645,-0.645,-0.645,-0.6482,-0.6483,-0.6485,0,0,0,0,0,-0.6912,-0.6894,-0.6881,-0.6869,-0.6795,-0.6751,-0.6741,-0.6705,-0.67,-0.6689,-0.6655,-0.6634,-0.6549,-0.6554,-0.6542,-0.6534,-0.645,-0.645,-0.645,-0.6481,-0.6483,-0.6485,0,0,0,0,0,0,-0.6949,-0.6886,-0.6871,-0.6835,-0.6799,-0.6743,-0.6728,-0.6708,-0.6672,-0.667,-0.6627,-0.6615,-0.6581,-0.6554,-0.6561,-0.6507,-0.6498,-0.6495,-0.6525,-0.6527,-0.6529,-0.6536,-0.6533,0,0,0,0,0,-0.6953,-0.6922,-0.6869,-0.6842,-0.6825,-0.678,-0.6759,-0.6735,-0.6695,-0.668,-0.6642,-0.6604,-0.6569,-0.6547,-0.6511,-0.6478,-0.6465,-0.6467,-0.6469,-0.647,-0.6468,-0.6449,-0.6449,-0.6448,-0.6448,-0.6448,0,0,-0.6961,-0.6923,-0.6906,-0.6849,-0.6818,-0.6787,-0.6767,-0.6735,-0.6712,-0.6674,-0.6636,-0.6608,-0.6563,-0.6527,-0.651,-0.6504,-0.6466,-0.647,-0.6471,-0.6468,-0.6449,-0.6449,-0.6449,-0.6448,-0.6448,-0.6448,0,0,-0.6959,-0.6928,-0.6902,-0.6872,-0.6826,-0.6796,-0.6791,-0.6738,-0.6718,-0.668,-0.6651,-0.6623,-0.6563,-0.6532,-0.6509,-0.6498,-0.6478,-0.6488,-0.6496,-0.6478,-0.6478,-0.6478,-0.6474,-0.6474,-0.6486,-0.6486,-0.6487,0,-0.6974,-0.6927,-0.6891,-0.6861,-0.6837,-0.6803,-0.6777,-0.675,-0.6694,-0.6678,-0.6673,-0.6598,-0.6565,-0.6522,-0.652,-0.6502,-0.6494,-0.6494,-0.6482,-0.6481,-0.648,-0.6476,-0.6475,-0.6488,-0.6488,-0.6488,-0.6488,0,-0.6949,-0.6916,-0.6901,-0.685,-0.6824,-0.6796,-0.6756,-0.6734,-0.6713,-0.6684,-0.6646,-0.6606,-0.6562,-0.655,-0.6529,-0.6505,-0.6502,-0.649,-0.648,-0.6482,-0.6478,-0.6476,-0.649,-0.649,-0.6489,-0.6489,0,0,-0.6966,-0.6896,-0.6891,-0.6868,-0.6815,-0.679,-0.6761,-0.6719,-0.6702,-0.6665,-0.664,-0.6591,-0.6579,-0.6553,-0.6528,-0.6512,-0.6507,-0.6501,-0.65,-0.6504,-0.6478,-0.6487,-0.6486,-0.6493,-0.6493,-0.6493,-0.6482,0,-0.6956,-0.6903,-0.6871,-0.6831,-0.6801,-0.6769,-0.6744,-0.671,-0.6683,-0.6653,-0.6623,-0.6589,-0.6577,-0.6561,-0.6544,-0.6511,-0.6501,-0.6511,-0.6469,-0.6468,-0.648,-0.6484,-0.6493,-0.6484,-0.648,-0.6479,-0.6479,0,-0.6938,-0.6903,-0.6861,-0.6813,-0.6799,-0.6777,-0.6737,-0.671,-0.667,-0.6651,-0.6623,-0.6598,-0.6567,-0.6561,-0.6516,-0.6524,-0.6505,-0.6487,-0.6486,-0.6479,-0.6473,-0.6477,-0.6481,-0.6479,-0.6476,-0.6476,-0.6476,0,-0.6955,-0.6898,-0.6865,-0.6846,-0.6789,-0.6775,-0.675,-0.6711,-0.6688,-0.6653,-0.6638,-0.66,-0.6579,-0.655,-0.6515,-0.6514,-0.6475,-0.6466,-0.6458,-0.6459,-0.645,-0.6451,-0.645,-0.644,-0.644,-0.644,-0.644,0,-0.6947,-0.6922,-0.6872,-0.6851,-0.6823,-0.6786,-0.6759,-0.6732,-0.6697,-0.6671,-0.6642,-0.6618,-0.6575,-0.6546,-0.6519,-0.6487,-0.6477,-0.6461,-0.6454,-0.6463,-0.6465,-0.6449,-0.6449,-0.6439,-0.6439,-0.6439,-0.6439,0,-0.696,-0.6925,-0.6887,-0.6838,-0.6825,-0.6806,-0.6763,-0.6743,-0.6715,-0.6683,-0.6673,-0.6629,-0.6594,-0.6557,-0.6509,-0.6491,-0.6459,-0.645,-0.6473,-0.6469,-0.6463,-0.6464,-0.6452,-0.6448,-0.6441,-0.6441,-0.6441,0,-0.6957,-0.6937,-0.6886,-0.6867,-0.6844,-0.6813,-0.6791,-0.6755,-0.6732,-0.6687,-0.6672,-0.6634,-0.6602,-0.6547,-0.6511,-0.6474,-0.6463,-0.6461,-0.6457,-0.6467,-0.6462,-0.6464,-0.6462,-0.6462,-0.6463,-0.6463,-0.6463,0,-0.6955,-0.694,-0.6908,-0.6871,-0.6845,-0.6814,-0.6782,-0.6768,-0.6726,-0.6702,-0.6666,-0.6642,-0.6593,-0.6556,-0.6516,-0.649,-0.647,-0.6465,-0.6461,-0.647,-0.6484,-0.6476,-0.6476,-0.6465,-0.6465,-0.6465,-0.6464,-0.6464,-0.696,-0.6941,-0.6903,-0.6869,-0.6841,-0.6812,-0.6791,-0.6761,-0.6731,-0.6689,-0.667,-0.6634,-0.6596,-0.6539,-0.6515,-0.6486,-0.648,-0.6475,-0.6473,-0.6472,-0.6474,-0.649,-0.6478,-0.6478,-0.6478,-0.6478,-0.6478,0,-0.6956,-0.693,-0.69,-0.6857,-0.6831,-0.6815,-0.6779,-0.6758,-0.6727,-0.6694,-0.6663,-0.6622,-0.6587,-0.6549,-0.6512,-0.6496,-0.6486,-0.6487,-0.6487,-0.6482,-0.6482,-0.6489,-0.6496,-0.6496,-0.6496,-0.6496,-0.6496,-0.6496,-0.6951,-0.6919,-0.6899,-0.6853,-0.6827,-0.6792,-0.6773,-0.6747,-0.672,-0.6676,-0.6647,-0.6623,-0.6588,-0.6548,-0.6515,-0.6505,-0.6492,-0.6496,-0.6483,-0.6483,-0.6482,-0.6481,-0.6487,-0.6494,-0.6494,-0.6486,-0.6486,-0.6486]},{"header":{"parameterUnit":"m.s-1","parameterCategory":1,"la1":30.2991,"la2":30.254,"lo1":-89.0895,"lo2":-89.0444,"dy":0.0017,"dx":0.0017,"nx":28,"ny":28,"refTime":"2024-04-22T21:00:00:Z","depth":0,"parameterNumber":3,"parameterNumberName":"V-component_of_WINDS"},"data":[0,0,0,0,0,0,0,0,0,0,0,0,0,0,0,0,0,0,0,0,0,0,0,0,0,0,0,0,0,0,0,0,0,0,0,0,0,0,0,0,0,0,0,0,0,0,0,0,0,0,0,0,0,0,0,0,0,0,1.1336,1.1336,0,1.1274,1.1273,1.1272,1.129,1.1292,1.1293,1.1294,1.1225,1.1222,1.1219,0,0,0,0,0,0,0,0,0,0,0,0,0,1.1467,1.1465,1.1336,1.1336,1.1335,1.1274,1.1273,1.1272,1.129,1.1292,1.1293,1.1295,1.1226,1.1223,1.1219,0,0,0,0,0,0,0,0,0,0,0,0,0,1.1408,1.1464,1.1336,1.1337,1.1336,1.1274,1.1273,1.1272,1.129,1.1292,1.1294,1.1296,1.1227,1.1223,1.1219,1.1151,0,0,1.1205,1.1203,0,0,0,0,0,0,0,0,1.1411,1.1403,1.1337,1.1337,1.1336,1.1292,1.1294,1.1231,1.1289,1.1307,1.1294,1.1297,1.1246,1.124,1.1223,1.1148,1.1145,1.1204,1.1201,1.1199,1.1198,0,0,0,0,0,0,0,1.1416,1.1406,1.1311,1.1336,1.1335,1.1338,1.1332,1.1282,1.1266,1.1306,1.1307,1.13,1.1245,1.1228,1.1222,1.1144,1.1204,1.12,1.1197,1.1196,1.1009,1.1007,0,0,0,0,0,0,1.1421,1.1409,1.1313,1.131,1.1379,1.1334,1.1327,1.1304,1.1267,1.1263,1.1298,1.1301,1.1235,1.1227,1.122,1.1138,1.1199,1.1195,1.1192,1.1011,1.1008,1.1006,0,0,0,0,0,0,1.1424,1.1412,1.1316,1.136,1.1348,1.133,1.1304,1.1302,1.1284,1.1261,1.1258,1.1283,1.1236,1.1226,1.1168,1.1135,1.1193,1.1189,1.1014,1.101,1.1007,1.0973,0,0,0,0,0,0,1.1427,1.1413,1.1388,1.1359,1.1345,1.1267,1.1302,1.1299,1.1277,1.128,1.1246,1.1242,1.1237,1.1175,1.1164,1.113,1.1185,1.1017,1.1012,1.1008,1.0977,1.0969,1.0962,0,0,0,0,0,1.1432,1.138,1.1387,1.1375,1.1314,1.1265,1.1257,1.1253,1.1274,1.1248,1.1233,1.1243,1.1141,1.1169,1.1156,1.1121,1.1019,1.1013,1.1009,1.0981,1.0971,1.0963,0,0,0,0,0,0,1.1404,1.1376,1.1383,1.1321,1.1295,1.1268,1.1235,1.1243,1.1209,1.1213,1.1208,1.12,1.1141,1.1125,1.1157,1.1053,1.1083,1.1075,1.1066,1.1056,1.1049,1.1053,1.1181,0,0,0,0,0,1.1391,1.1355,1.1332,1.1279,1.1266,1.1253,1.1231,1.1231,1.1203,1.1192,1.1173,1.1144,1.1106,1.108,1.1044,1.0976,1.0968,1.0945,1.0938,1.0932,1.0925,1.0887,1.0876,1.099,1.099,1.099,0,0,1.1362,1.1343,1.132,1.1273,1.1253,1.1214,1.1243,1.1201,1.1172,1.1185,1.1129,1.1114,1.1082,1.1019,1.099,1.1004,1.0892,1.0925,1.0921,1.0917,1.088,1.087,1.086,1.0986,1.0987,1.0988,0,0,1.1291,1.1273,1.1227,1.1207,1.1177,1.1169,1.1158,1.113,1.1121,1.1065,1.1074,1.1039,1.0973,1.0949,1.0929,1.085,1.0857,1.0838,1.0798,1.0761,1.0752,1.0744,1.0715,1.0705,1.0831,1.0831,1.0831,0,1.1259,1.1203,1.1202,1.1159,1.1137,1.115,1.1102,1.1082,1.1041,1.1025,1.1042,1.0959,1.0938,1.087,1.085,1.0834,1.082,1.0841,1.0754,1.0746,1.0739,1.071,1.07,1.0829,1.0829,1.0829,1.0829,0,1.1165,1.1125,1.1091,1.1053,1.1028,1.0983,1.0974,1.0948,1.095,1.0939,1.0882,1.0858,1.0817,1.08,1.0801,1.0731,1.0741,1.0756,1.0785,1.0725,1.0699,1.0688,1.0825,1.0826,1.0827,1.0827,0,0,1.1073,1.1036,1.1023,1.1006,1.0974,1.0943,1.0898,1.0859,1.0837,1.0808,1.0769,1.0713,1.0727,1.0704,1.0702,1.067,1.0608,1.0689,1.0688,1.0674,1.0528,1.0516,1.0504,1.0613,1.0611,1.061,1.0531,0,1.0998,1.0921,1.0919,1.0847,1.081,1.0822,1.0782,1.0758,1.0747,1.0713,1.07,1.0661,1.0683,1.0668,1.0637,1.0622,1.0578,1.0628,1.0575,1.0573,1.0582,1.049,1.0478,1.0404,1.052,1.0519,1.0517,0,1.09,1.087,1.0795,1.0769,1.0754,1.0719,1.0683,1.0651,1.0623,1.0617,1.0591,1.0594,1.0547,1.0579,1.0513,1.0547,1.0525,1.0514,1.0511,1.0505,1.0541,1.0481,1.0381,1.0369,1.0501,1.0502,1.0504,0,1.0839,1.078,1.0728,1.0713,1.0681,1.0656,1.0642,1.0616,1.0593,1.0561,1.0546,1.0508,1.0487,1.0457,1.045,1.0474,1.0383,1.0415,1.0376,1.0376,1.0355,1.0356,1.0249,1.0343,1.0343,1.0343,1.0344,0,1.0755,1.0709,1.07,1.0668,1.0616,1.0614,1.0562,1.0549,1.0526,1.049,1.0497,1.0463,1.0456,1.042,1.0413,1.0359,1.0349,1.0342,1.0341,1.0341,1.0342,1.0326,1.033,1.0341,1.0341,1.0342,1.0342,0,1.0678,1.0671,1.0614,1.059,1.0582,1.0545,1.0523,1.0491,1.0482,1.0436,1.0426,1.041,1.0368,1.0358,1.0307,1.0303,1.0238,1.0242,1.0248,1.0248,1.0209,1.0213,1.0088,1.0071,1.0177,1.0176,1.0175,0,1.0625,1.0589,1.0561,1.0539,1.0524,1.0487,1.0464,1.046,1.0436,1.0401,1.0373,1.0333,1.03,1.0232,1.0215,1.0176,1.0179,1.0137,1.0173,1.0174,1.0177,1.0178,1.0174,1.013,1.0129,1.0128,1.0127,0,1.053,1.0528,1.0496,1.0461,1.0434,1.0406,1.038,1.0361,1.0353,1.0325,1.0283,1.0258,1.0207,1.0166,1.0127,1.011,1.0117,1.0117,1.0106,1.0105,1.0109,1.0105,1.0229,1.0119,1.012,1.0121,1.0121,1.0121,1.0462,1.0431,1.0407,1.037,1.035,1.0326,1.0295,1.0282,1.0248,1.0207,1.0207,1.0161,1.0134,1.0083,1.0064,1.0027,1.0039,1.0023,1.0018,1.0014,1.0011,1.0116,1.0019,1.002,1.002,1.002,1.002,0,1.0367,1.0352,1.0319,1.0282,1.0253,1.0264,1.0236,1.021,1.017,1.0145,1.0113,1.0064,1.0025,1.0005,0.9966,0.9939,0.9941,0.9929,0.993,0.9926,1.0002,1.0015,0.9928,0.9928,0.9928,0.9928,0.9928,0.9928,1.0314,1.0262,1.0258,1.0196,1.0181,1.0138,1.012,1.0097,1.0077,1.0023,0.9991,0.9979,0.9956,0.9915,0.9878,0.9874,0.9858,0.9844,0.984,0.9911,0.9921,0.993,0.9942,0.9841,0.9841,0.9767,0.9767,0.9766]}]]